This is the latest recevied weather packets stored in our database for station/object KD2FKI. If no packets are shown the sender has not sent any weather packets the latest 10 day(s).
| Time | Temp. | Humidity | Pressure | Rain* | Wind** | Luminosity | Snow |
|---|---|---|---|---|---|---|---|
| 1778003439 | 31.11° C | 34% | - | 0 mm | - | - | - |
| 1778002840 | 30.56° C | 35% | - | 0 mm | - | - | - |
| 1778002250 | 30.56° C | 35% | - | 0 mm | - | - | - |
| 1778001635 | 30° C | 34% | - | 0 mm | - | - | - |
| 1778001047 | 29.44° C | 35% | - | 0 mm | - | - | - |
| 1778000433 | 30° C | 35% | - | 0 mm | - | - | - |
| 1777999847 | 29.44° C | 35% | - | 0 mm | - | - | - |
| 1777999233 | 29.44° C | 35% | - | 0 mm | - | - | - |
| 1777998642 | 30° C | 34% | - | 0 mm | - | - | - |
| 1777998046 | 29.44° C | 35% | - | 0 mm | - | - | - |
| 1777997440 | 28.89° C | 38% | - | 0 mm | - | - | - |
| 1777996844 | 28.33° C | 40% | - | 0 mm | - | - | - |
| 1777996238 | 27.78° C | 39% | - | 0 mm | - | - | - |
| 1777995642 | 27.78° C | 39% | - | 0 mm | - | - | - |
| 1777995032 | 27.22° C | 43% | - | 0 mm | - | - | - |
| 1777994439 | 26.67° C | 44% | - | 0 mm | - | - | - |
| 1777993849 | 26.11° C | 45% | - | 0 mm | - | - | - |
| 1777993236 | 25.56° C | 45% | - | 0 mm | - | - | - |
| 1777992646 | 25° C | 47% | - | 0 mm | - | - | - |
| 1777992052 | 24.44° C | 48% | - | 0 mm | - | - | - |
| 1777991443 | 23.89° C | 49% | - | 0 mm | - | - | - |
| 1777990832 | 23.89° C | 51% | - | 0 mm | - | - | - |
| 1777989629 | 22.78° C | 51% | - | 0 mm | - | - | - |
| 1777989042 | 22.22° C | 52% | - | 0 mm | - | - | - |
| 1777988445 | 22.22° C | 53% | - | 0 mm | - | - | - |
* Rain latest hour (hover to see other rain measurements)
** Current wind speed in m/s (hover to see current wind gust speed)